Skip Page Navigation
NASA JPL Caltech
NASA Logo - Jet Propulsion Laboratory + View the NASA Portal
+ Center for Near-Earth Object Studies
JPL Home Earth Solar System Stars & Galaxies Technology
JPL Solar System Dynamics
BODIES ORBITS EPHEMERIDES TOOLS PHYSICAL DATA DISCOVERY FAQ SITE MAP
JPL Small-Body Database Browser
Search: [ help ]  
9514 Deineka (1973 SG5)
Classification: Main-belt Asteroid          SPK-ID: 2009514
Ephemeris | Orbit Diagram | Orbital Elements | Mission Design | Physical Parameters | Discovery Circumstances ]

[ show orbit diagram ]
Orbital Elements at Epoch 2459000.5 (2020-May-31.0) TDB
Reference: JPL 22 (heliocentric ecliptic J2000)
 Element Value Uncertainty (1-sigma)   Units 
e .2603943509881619 3.4426e-08  
a 2.329310795084454 6.5169e-09 au
q 1.722771422348718 8.0872e-08 au
i 2.391497881147489 3.6334e-06 deg
node 61.78769852973232 9.6813e-05 deg
peri 254.5902303537082 9.7014e-05 deg
M 71.86855812870282 7.7966e-06 deg
tp 2458741.275516948084
(2019-Sep-14.77551695)
2.7628e-05 TDB
period 1298.492919971626
3.56
5.4493e-06
1.492e-08
d
yr
n .2772444843271586 1.1635e-09 deg/d
Q 2.93585016782019 8.2138e-09 au
  Orbit Determination Parameters
   # obs. used (total)      1567  
   data-arc span      16879 days (46.21 yr)  
   first obs. used      1973-09-19  
   last obs. used      2019-12-06  
   planetary ephem.      DE431  
   SB-pert. ephem.      SB431-N16  
   condition code      0  
   norm. resid. RMS      .50151  
   source      ORB  
   producer      Otto Matic  
   solution date      2019-Dec-13 22:52:49  

Additional Information
 Earth MOID = .711208 au 
 Jupiter MOID = 2.3752 au 
 T_jup = 3.525 
[ show covariance matrix ]

Ephemeris | Orbit Diagram | Orbital Elements | Mission Design | Physical Parameters | Discovery Circumstances ]

Physical Parameter Table
Parameter Symbol Value Units Sigma Reference Notes
absolute magnitude H 14.6   n/a MPO337338  

9514 Deineka           Discovered 1973 Sept. 27 by L. V. Zhuravleva at the Crimean Astrophysical Observatory.
Aleksandr Aleksandrovich Deineka (1899-1969) was a Russian painter known for his monumental works and panels on the subjects of labor, sport and defense of the motherland.
NOTE: some special characters may not display properly (any characters within {} are an attempt to place the proper accent above a character)
Reference: 20030318/MPCPages.arcLast Updated: 2003-10-02

Alternate Designations
 1973 SG5 = 1984 WQ4 = 1996 BL1 
Ephemeris | Orbit Diagram | Orbital Elements | Mission Design | Physical Parameters | Discovery Circumstances ]
ABOUT SSD CREDITS/AWARDS PRIVACY/COPYRIGHT GLOSSARY LINKS
FirstGov 2020-Jul-03 14:58 UT
(server date/time)  
NASA Home Page
Site Manager:   Ryan S. Park
Webmaster  Alan B. Chamberlin